Regional Weather Roundup
Issued by NWS

Home | Current Version | Previous Version | Graphics & Text | Print | Product List | Glossary On
Versions: 1 2 3 4 5 6 7 8 9 10 11 12 13 14 15 16 17 18 19 20 21 22 23 24 25 26 27 28 29 30 31 32 33 34 35 36 37 38 39 40 41 42 43 44 45 46 47 48 49 50
000
ASUS43 KMPX 221801
RWRMN
WEATHER ROUNDUP FOR MINNESOTA
NATIONAL WEATHER SERVICE TWIN CITIES/CHANHASSEN MN
1200 PM CST MON DEC 22 2014


NOTE: "FAIR" INDICATES FEW OR NO CLOUDS BELOW 12,000 FEET WITH NO
SIGNIFICANT WEATHER AND/OR OBSTRUCTIONS TO VISIBILITY. N/A MEANS
CURRENT SKY AND/OR WEATHER CONDITIONS ARE NOT AVAILABLE.

MNZ060>063-068>070-221900-
   Twin Cities Metro

CITY           SKY/WX    TMP DP  RH WIND       PRES   REMARKS
TWIN CITIES    LGT RAIN  36  33  89 SE13      29.62F FOG
6HR MIN TEMP:  36; 6HR MAX TEMP:  37; 6HR PCP:  0.03;

ST PAUL        LGT RAIN  36  34  92 SE10      29.64F FOG
CRYSTAL        LGT RAIN  37  34  89 SE9       29.61F FOG
BLAINE         RAIN      37  37 100 SE12G20   29.62
LAKEVILLE      DRIZZLE   36  34  93 SE10      29.61F
EDEN PRAIRIE   LGT RAIN  36  34  92 SE12      29.59F FOG
6HR MIN TEMP:  36; 6HR MAX TEMP:  38; 6HR PCP: TRACE;

SOUTH ST PAUL    N/A     37  35  94 SE7       29.63F FOG
LAKE ELMO      DRIZZLE   36  36 100 SE9       29.64F
$$
MNZ001>005-007-008-013>017-022>024-027-028-221900-
   Northwest Minnesota

CITY           SKY/WX    TMP DP  RH WIND       PRES   REMARKS
BEMIDJI        CLOUDY    35  34  98 SE7       29.57S FOG     WCI  29
HALLOCK        CLOUDY    36  34  93 E8        29.58S FOG
ROSEAU         CLOUDY    36  30  80 E7        29.59F
WARROAD        CLOUDY    34  30  86 E7        29.61S FOG     WCI  28
THIEF RVR FALL CLOUDY    36  34  93 E10       29.55S
CROOKSTON      CLOUDY    37  36  93 SE10      29.55S
FOSSTON        RAIN      34  34 100 E7        29.55S WCI  28
DETROIT LAKES  CLOUDY    36  36 100 SE12      29.53S FOG
MOORHEAD       RAIN      39  39 100 SE9       29.51S
PARK RAPIDS    CLOUDY    37  35  92 SE12      29.55S FOG
MAHNOMEN       DRIZZLE   37  36  96 SE10      29.53F
$$
MNZ006-009>011-018-025>026-221900-
   North Central Minnesota

CITY           SKY/WX    TMP DP  RH WIND       PRES   REMARKS
BAUDETTE       CLOUDY    34  33  96 SE8       29.61S WCI  27
FLAG ISLAND    CLOUDY    34  34 100 E7        29.62S WCI  28
INTL FALLS     LGT RAIN  34  32  92 SE7       29.64F WCI  28
6HR MIN TEMP:  33; 6HR MAX TEMP:  34; 6HR PCP:  0.04;

WASKISH        CLOUDY    36  36 100 SE7G16    29.60F
BIG FORK       LGT RAIN  36  34  93 SE7       29.63S
LONGVILLE      DRIZZLE   36  36 100 SE6       29.59S
GRAND RAPIDS   CLOUDY    34  32  93 SE6       29.62S WCI  29
CRANE LAKE     LGT RAIN  34  34 100 CALM      29.69F
ORR            LGT SNOW  34  30  86 SE3       29.63F
COOK           RAIN      34  34 100 SE5       29.66F WCI  30
WALKER         CLOUDY    34  34  99 SE5       29.58S FOG     WCI  30
$$
MNZ012-019>021-037-221900-
   Northeast Minnesota

CITY           SKY/WX    TMP DP  RH WIND       PRES   REMARKS
DULUTH         SNOW      33  32  96 SE13      29.66F VSB 1/4 WCI  24
6HR MIN TEMP:  33; 6HR MAX TEMP:  34; 6HR PCP:  0.07;

ELY            CLOUDY    34  32  93 SE7       29.68F WCI  28
HIBBING        LGT SNOW  35  32  88 SE10      29.65F FOG     WCI  27
EVELETH        LGT RAIN  34  34 100 SE8       29.66F WCI  27
DULUTH HARBOR  CLOUDY    36  34  93 CALM      29.71F FOG
TWO HARBORS    CLOUDY    36  30  80 E6          N/A  VSB 3/4
SILVER BAY     SNOW      34  34 100 NE5       29.70F VSB 1/2 WCI  30
GRAND MARAIS     N/A     37  35  92 SE5       29.77F
G MARAIS ARPRT RAIN      30  28  93 SE3       29.73S VSB 1/4
$$
MNZ029>031-032-039>041-046>048-054>057-064-221900-
   West Central Minnesota

CITY           SKY/WX    TMP DP  RH WIND       PRES   REMARKS
FERGUS FALLS   CLOUDY    37  37 100 SE12      29.53S FOG
WHEATON        LGT RAIN  36  36 100 SE16      29.48F
MORRIS         DRIZZLE   37  37 100 SE16G22   29.48F
ALEXANDRIA     CLOUDY    36  35  96 SE14      29.52F FOG
ELBOW LAKE     CLOUDY    37  37 100 SE10G17   29.49F FOG
WADENA         CLOUDY    36  34  93 SE13      29.54S FOG
GLENWOOD       DRIZZLE   36  36 100 SE14      29.52F
APPLETON       RAIN      39  37  93 SE15      29.47F
BENSON         LGT RAIN  37  37 100 SE13G18   29.50F
ORTONVILLE     RAIN      37  36  93 SE14      29.45F
MADISON        LGT RAIN  41  39  93 SE14      29.45F
WILLMAR        LGT RAIN  37  36  93 SE15      29.53F
$$
MNZ033>034-036-042>043-049>051-058-059-221900-
   Central Minnesota

CITY           SKY/WX    TMP DP  RH WIND       PRES   REMARKS
ST CLOUD       LGT RAIN  38  34  85 SE10      29.58F FOG
6HR MIN TEMP:  38; 6HR MAX TEMP:  39; 6HR PCP:  0.04;

SAUK CENTRE    LGT RAIN  35  34  97 SE15      29.54F WCI  25
PAYNESVILLE    LGT RAIN  33  33 100 E9        29.55F WCI  26
AITKIN         MIX PCPN  37  32  81 SE7       29.60F
PINE RIVER     LGT RAIN  34  34 100 SE10      29.62F WCI  26
BRAINERD       LGT RAIN  35  34  96 SE9       29.59F FOG     WCI  28
STAPLES        LGT RAIN  36  36 100 SE5       29.56F
LONG PRAIRIE   MIX PCPN  34  34 100 E13G18    29.55F WCI  25
LITTLE FALLS   MIX PCPN  34  34 100 SE14      29.58F WCI  24
LITCHFIELD     DRIZZLE   37  37 100 SE14      29.56F
BUFFALO        DRIZZLE   36  33  91 E12G18    29.60F
MAPLE LAKE     CLOUDY    36  36  99 E12G17    29.59F FOG
$$
MNZ037-044-045-052-053-221900-
   East Central Minnesota

CITY           SKY/WX    TMP DP  RH WIND       PRES   REMARKS
PRINCETON      LGT RAIN  37  36  93 E10       29.61F
MORA           CLOUDY    32  32 100 SE7       29.65F WCI  26
CAMBRIDGE      DRIZZLE   37  30  75 SE8       29.61F
RUSH CITY      CLOUDY    35  33  94 SE8       29.65F FOG     WCI  28
MOOSE LAKE     CLOUDY    34  34 100 SE6       29.64F FOG     WCI  29
HINCKLEY       DRIZZLE   36  34  93 CALM      29.65F
CLOQUET        MIX PCPN  34  34 100 SE7       29.66F VSB 3/4 WCI  28
MCGREGOR       CLOUDY    34  34 100 SE13      29.63F WCI  25
$$
MNZ071>073-080-081-089-090-097-098-221900-
   Southwest Minnesota

CITY           SKY/WX    TMP DP  RH WIND       PRES   REMARKS
MONTEVIDEO     DRIZZLE   37  37 100 S16       29.49F
GRANITE FALLS  LGT RAIN  38  37  97 E14G20    29.50F
CANBY          DRIZZLE   39  38  97 SE9       29.45F
MARSHALL       CLOUDY    39  36  87 SE13      29.46F
REDWOOD FALLS  LGT RAIN  39  37  92 SE18      29.50F FOG
OLIVIA         LGT RAIN  37  36  93 SE15      29.51F
PIPESTONE      DRIZZLE   37  37 100 S12       29.42F
WINDOM         RAIN      39  37  93 SE16      29.49F
WORTHINGTON    CLOUDY    37 -11  12 S16G22    29.46F
JACKSON        CLOUDY    37  36  93 SE14      29.50F FOG
TRACY          DRIZZLE   39  38  95 S13       29.46F
SLAYTON        DRIZZLE   37  37 100 SE17      29.46F
$$
MNZ065>067-074>077-082>085-091>093-221900-
   South Central Minnesota

CITY           SKY/WX    TMP DP  RH WIND       PRES   REMARKS
MANKATO        CLOUDY    37  32  81 SE15      29.56F
NEW ULM        LGT RAIN  37  37 100 SE13G21   29.54F
FAIRMONT       CLOUDY    37  34  87 SE18      29.52F
GLENCOE        DRIZZLE   37  37  98 SE12      29.56F
FARIBAULT      DRIZZLE   36  34  93 SE13      29.60F
OWATONNA       DRIZZLE   36  34  93 SE16G23   29.59F
WASECA         DRIZZLE   36  36 100 SE15      29.59F
ALBERT LEA     LGT RAIN  36  36 100 SE12G17   29.58F
$$
MNZ078>079-086>088-094>096-221900-
   Southeast Minnesota

CITY           SKY/WX    TMP DP  RH WIND       PRES   REMARKS
ROCHESTER      MIX PCPN  35  33  92 SE17      29.63F FOG     WCI  25
6HR MIN TEMP:  34; 6HR MAX TEMP:  35; 6HR PCP:  0.02;

RED WING       LGT RAIN  36  36 100 SE13      29.64F
STANTON        LGT RAIN  38  34  87 SE12      29.60F
DODGE CENTER   LGT RAIN  36  36 100 SE14      29.61F
WINONA         CLOUDY    37  32  81 SE10      29.69F
AUSTIN         LGT RAIN  34  34 100 SE13      29.60F WCI  25
PRESTON        CLOUDY    34  32  92 SE12G17   29.64F FOG     WCI  26
$$
ABBREVIATIONS USED IN REMARKS
   TC - TEMPERATURES IN CELSIUS
  WCI - WIND CHILL INDEX
   HX - HEAT INDEX
  VSB - VISIBILITY
$$



USA.gov is the U.S. government's official web portal to all federal, state and local government web resources and services.